SCOUT A R/B, 1865

Orbit data source: Space-Track

SCOUT A R/B, 1865 is space debris in LEO originally from a launch on Wed, 22 Dec 1965 UTC launched from the Air Force Western Test Range (AFWTR). Debris objects in space refer to the collection of defunct objects orbiting the Earth. Examples of debris include non-operational satellites, rocket bodies, and fragments generated from explosions, collisions, or faulty payload assembly.

Loading next visibility...
Identifier
1865, 1965-109B
Orbit
LEO
Country
Flag of USUS
Related business
Manufacturer
ABL
Mission
Spacecraft
Bus & Motor
ALTAIR, Unknown motor
Mass
33 kg wet, 33 kg dry
Launch date (UTC)
1965-12-22 (60 years ago)
Launch vehicle
Unknown
Launch site
Air Force Western Test Range (AFWTR)
Object type
Payload
Rocket body
Debris
Shape & HBR
Cyl, 0.8 m
Radar Cross Section
0.687 m², Medium (>0.1 m² and < 1m²)

Expand to show TLE details & history
Last TLE update: 12 hours ago

TLE from 12 hours ago
0 SCOUT A R/B
1 01865U 65109B   25258.81525877  .00000123  00000-0  10575-3 0  9993
2 01865  89.0584 276.1414 0113712  94.4274 266.9893 13.76753172995879
Epoch: 2025-09-15T19:33Z
TLE epoch observation values (Epoch: 2025-09-15T19:33:58.357Z)
Latitude
-0.00006°
Longitude
-12.36626°
Altitude
983.757 km
Speed
7.357 km/s
True Right ascension
18h 24m 33s
True Declination
0° 00' 00"
Sunlit
Object was in daylight at epoch
Visualization orbit readout
Latitude
Unknown
Longitude
Unknown
Altitude
Unknown
Speed
Unknown
Apparent Right ascension
Unknown
Apparent Declination
Unknown
Sunlit
N/A
Visualization observer readout
Local Sidereal Time
00:28:29
Azimuth
Unknown
Elevation
Unknown
Doppler factor
Unknown
Orbital elements
Apogee altitude
1,056.023 km
Perigee altitude
888.853 km
Semi-major axis
7,350.575 km
Eccentricity
0.01137
Inclination
89.0584°
RAAN
276.1414°
Arg. of periapsis
94.4274°
True anomaly
265.68914°
Mean anomaly
266.9893°
Eccentric anomaly
266.33911°
Mean motion
3.44398 °/min
Orbital period
104.53 mins
BSTAR
0.00010575
Loading maneuver chart data...
Computing Atmospheric mass density...
Loading historical data...
Loading historical data...
Loading historical data...
Loading historical data...
Loading historical data...
Loading historical data...
Loading historical data...

Documentation

Showing up to 5 results
|